UPS499 RCTP-RKSI

Flight info

Callsign UPS499
Flight time 2h 1m
Altitude 35000
Route PIANO1C PIANO L3 SALMI B576 CJU Y722 OLMEN OLMEN2H
Aircraft B763/H-SDE3FGHIM3RWXY/LB1

Departure

Time 2026-05-05 17:56
Airport Taiwan Taoyuan International Airport (RCTP)

Arrival

Time 2026-05-05 19:58
Airport Incheon International Airport (RKSI)
Time Latitude Longitude Altitude Speed Heading
2026-05-05 17:18 25.09097 121.24419 118 ft 0 kts 137°
2026-05-05 17:45 25.09107 121.24409 118 ft 2 kts 137°
2026-05-05 17:46 25.09118 121.24398 118 ft 2 kts 137°
2026-05-05 17:46 25.09129 121.24387 118 ft 2 kts 137°
2026-05-05 17:46 25.09140 121.24376 118 ft 2 kts 138°
2026-05-05 17:46 25.09148 121.24367 118 ft 0 kts 137°
2026-05-05 17:47 25.09155 121.24361 118 ft 2 kts 130°
2026-05-05 17:47 25.09164 121.24342 118 ft 2 kts 104°
2026-05-05 17:47 25.09166 121.24326 118 ft 2 kts 87°
2026-05-05 17:47 25.09165 121.24316 118 ft 2 kts 75°
2026-05-05 17:48 25.09157 121.24296 118 ft 1 kts 52°
2026-05-05 17:48 25.09154 121.24292 118 ft 0 kts 48°
2026-05-05 17:50 25.09155 121.24304 118 ft 3 kts 100°
2026-05-05 17:50 25.09125 121.24299 118 ft 9 kts 248°
2026-05-05 17:51 25.09076 121.24200 118 ft 19 kts 230°
2026-05-05 17:51 25.08964 121.24056 118 ft 29 kts 229°
2026-05-05 17:51 25.08813 121.23860 118 ft 37 kts 227°
2026-05-05 17:51 25.08640 121.23643 118 ft 37 kts 229°
2026-05-05 17:52 25.08471 121.23428 118 ft 36 kts 229°
2026-05-05 17:52 25.08310 121.23219 118 ft 35 kts 229°
2026-05-05 17:52 25.08149 121.23016 118 ft 34 kts 230°
2026-05-05 17:52 25.07990 121.22816 118 ft 34 kts 228°
2026-05-05 17:53 25.07836 121.22617 118 ft 34 kts 229°
2026-05-05 17:53 25.07679 121.22420 118 ft 33 kts 228°
2026-05-05 17:53 25.07529 121.22228 118 ft 33 kts 229°
2026-05-05 17:53 25.07378 121.22036 118 ft 32 kts 229°
2026-05-05 17:54 25.07230 121.21848 118 ft 30 kts 231°
2026-05-05 17:54 25.07200 121.21807 118 ft 7 kts 231°
2026-05-05 17:54 25.07157 121.21738 118 ft 6 kts 263°
2026-05-05 17:54 25.07177 121.21716 118 ft 3 kts 322°
2026-05-05 17:55 25.07216 121.21681 118 ft 10 kts 320°
2026-05-05 17:55 25.07287 121.21629 118 ft 11 kts 345°
2026-05-05 17:55 25.07337 121.21662 118 ft 9 kts 46°
2026-05-05 17:55 25.07447 121.21799 118 ft 44 kts 50°
2026-05-05 17:56 25.07770 121.22209 118 ft 96 kts 50°
2026-05-05 17:56 25.08311 121.22898 119 ft 140 kts 49°
2026-05-05 17:56 25.09027 121.23804 272 ft 167 kts 52°
2026-05-05 17:56 25.09770 121.24794 871 ft 168 kts 50°
2026-05-05 17:57 25.10547 121.25792 1357 ft 177 kts 50°
2026-05-05 17:57 25.11397 121.26856 1697 ft 192 kts 50°
2026-05-05 17:57 25.12315 121.28014 1969 ft 214 kts 51°
2026-05-05 17:57 25.13465 121.29177 2349 ft 234 kts 28°
2026-05-05 17:58 25.15108 121.29601 2751 ft 256 kts 359°
2026-05-05 17:58 25.16316 121.29524 3047 ft 267 kts 356°
2026-05-05 17:58 25.18843 121.29370 3991 ft 276 kts 356°
2026-05-05 17:58 25.20774 121.29256 4810 ft 279 kts 355°
2026-05-05 17:59 25.22715 121.29140 5592 ft 282 kts 355°
2026-05-05 17:59 25.24684 121.29023 6403 ft 284 kts 354°
2026-05-05 17:59 25.26657 121.28903 7166 ft 287 kts 354°
2026-05-05 17:59 25.28647 121.28783 7958 ft 289 kts 354°
2026-05-05 18:00 25.30640 121.28663 8723 ft 291 kts 353°
2026-05-05 18:00 25.32683 121.28539 9485 ft 292 kts 353°
2026-05-05 18:00 25.34710 121.28417 10170 ft 296 kts 353°
2026-05-05 18:00 25.36802 121.28323 10599 ft 312 kts 358°
2026-05-05 18:01 25.39016 121.28791 10922 ft 337 kts 17°
2026-05-05 18:01 25.41158 121.30061 11208 ft 363 kts 34°
2026-05-05 18:01 25.42983 121.32089 11742 ft 377 kts 51°
2026-05-05 18:01 25.44388 121.34528 12408 ft 382 kts 54°
2026-05-05 18:02 25.45990 121.36923 12991 ft 388 kts 49°
2026-05-05 18:02 25.47118 121.38480 13305 ft 393 kts 49°
2026-05-05 18:02 25.49423 121.41563 14156 ft 397 kts 46°
2026-05-05 18:02 25.51213 121.43893 14780 ft 400 kts 47°
2026-05-05 18:03 25.53048 121.46267 15353 ft 406 kts 46°
2026-05-05 18:03 25.54890 121.48635 15941 ft 410 kts 46°
2026-05-05 18:03 25.56756 121.51030 16432 ft 416 kts 47°
2026-05-05 18:03 25.58007 121.52635 16844 ft 418 kts 47°
2026-05-05 18:04 25.60557 121.55903 17652 ft 425 kts 47°
2026-05-05 18:04 25.62497 121.58396 18265 ft 429 kts 47°
2026-05-05 18:04 25.64455 121.60908 18824 ft 435 kts 47°
2026-05-05 18:04 25.66458 121.63480 19391 ft 441 kts 47°
2026-05-05 18:05 25.68473 121.66067 19913 ft 447 kts 48°
2026-05-05 18:05 25.70507 121.68681 20460 ft 451 kts 47°
2026-05-05 18:05 25.72571 121.71335 20963 ft 456 kts 47°
2026-05-05 18:05 25.74629 121.73983 21530 ft 459 kts 48°
2026-05-05 18:06 25.76746 121.76708 21990 ft 464 kts 48°
2026-05-05 18:06 25.77424 121.77581 22092 ft 467 kts 47°
2026-05-05 18:06 25.80331 121.81176 22755 ft 470 kts 41°
2026-05-05 18:06 25.83726 121.84180 23418 ft 471 kts 32°
2026-05-05 18:07 25.85494 121.85620 23794 ft 474 kts 33°
2026-05-05 18:07 25.89051 121.88509 24658 ft 478 kts 33°
2026-05-05 18:07 25.91775 121.90721 25253 ft 483 kts 33°
2026-05-05 18:07 25.94491 121.92921 25913 ft 485 kts 33°
2026-05-05 18:08 25.97191 121.95110 26516 ft 490 kts 33°
2026-05-05 18:08 25.99966 121.97358 26933 ft 497 kts 33°
2026-05-05 18:08 26.02790 121.99645 27611 ft 497 kts 33°
2026-05-05 18:08 26.05592 122.01836 28108 ft 501 kts 32°
2026-05-05 18:09 26.08491 122.04100 28507 ft 508 kts 32°
2026-05-05 18:09 26.11386 122.06365 29107 ft 510 kts 32°
2026-05-05 18:09 26.14305 122.08648 29509 ft 515 kts 32°
2026-05-05 18:09 26.17204 122.10920 30046 ft 517 kts 32°
2026-05-05 18:10 26.20186 122.13257 30571 ft 519 kts 32°
2026-05-05 18:10 26.23151 122.15581 31100 ft 519 kts 32°
2026-05-05 18:10 26.26090 122.17890 31767 ft 517 kts 31°
2026-05-05 18:10 26.29015 122.20185 32259 ft 518 kts 31°
2026-05-05 18:11 26.31961 122.22499 32831 ft 516 kts 31°
2026-05-05 18:11 26.33917 122.24038 33260 ft 514 kts 31°
2026-05-05 18:11 26.36849 122.26342 33722 ft 515 kts 31°
2026-05-05 18:11 26.39762 122.28637 34360 ft 511 kts 31°
2026-05-05 18:12 26.43625 122.31679 34988 ft 508 kts 31°
2026-05-05 18:12 26.49385 122.36220 34996 ft 503 kts 31°
2026-05-05 18:13 26.55111 122.40738 34999 ft 506 kts 31°
2026-05-05 18:13 26.60906 122.45318 34998 ft 507 kts 32°
2026-05-05 18:14 26.66643 122.49858 34992 ft 505 kts 31°
2026-05-05 18:14 26.72406 122.54424 35002 ft 508 kts 31°
2026-05-05 18:15 26.78192 122.59014 35014 ft 510 kts 31°
2026-05-05 18:15 26.83965 122.63602 35010 ft 509 kts 31°
2026-05-05 18:16 26.89760 122.68209 35003 ft 509 kts 32°
2026-05-05 18:16 26.95519 122.72795 34997 ft 512 kts 32°
2026-05-05 18:17 27.01335 122.77434 35001 ft 512 kts 32°
2026-05-05 18:17 27.07133 122.82063 35009 ft 511 kts 32°
2026-05-05 18:18 27.12957 122.86724 34994 ft 513 kts 32°
2026-05-05 18:18 27.18734 122.91355 35002 ft 514 kts 32°
2026-05-05 18:19 27.24449 122.96222 35018 ft 518 kts 39°
2026-05-05 18:19 27.29912 123.01500 35010 ft 517 kts 38°
2026-05-05 18:20 27.34481 123.05886 35001 ft 517 kts 38°
2026-05-05 18:20 27.40854 123.12000 35004 ft 518 kts 38°
2026-05-05 18:21 27.46352 123.17280 35005 ft 520 kts 38°
2026-05-05 18:21 27.51837 123.22554 35000 ft 519 kts 38°
2026-05-05 18:22 27.57315 123.27829 35002 ft 519 kts 38°
2026-05-05 18:22 27.62806 123.33123 34996 ft 521 kts 38°
2026-05-05 18:23 27.68287 123.38415 35007 ft 520 kts 39°
2026-05-05 18:23 27.73777 123.43722 35015 ft 520 kts 38°
2026-05-05 18:24 27.79282 123.49053 35011 ft 522 kts 38°
2026-05-05 18:24 27.84776 123.54377 35014 ft 522 kts 38°
2026-05-05 18:25 27.90299 123.59740 35017 ft 521 kts 38°
2026-05-05 18:25 27.95794 123.65081 35026 ft 523 kts 39°
2026-05-05 18:26 28.01340 123.70479 35021 ft 523 kts 39°
2026-05-05 18:26 28.06848 123.75850 35019 ft 524 kts 39°
2026-05-05 18:27 28.12356 123.81226 35017 ft 522 kts 39°
2026-05-05 18:27 28.17873 123.86620 35016 ft 524 kts 39°
2026-05-05 18:28 28.26170 123.94746 35023 ft 526 kts 39°
2026-05-05 18:28 28.31535 124.00366 35015 ft 524 kts 49°
2026-05-05 18:29 28.36000 124.06907 35007 ft 526 kts 54°
2026-05-05 18:29 28.40393 124.13560 35005 ft 525 kts 54°
2026-05-05 18:30 28.44730 124.20184 35014 ft 525 kts 54°
2026-05-05 18:30 28.49081 124.26846 35015 ft 526 kts 54°
2026-05-05 18:31 28.53430 124.33518 35019 ft 527 kts 54°
2026-05-05 18:31 28.57779 124.40202 35024 ft 528 kts 54°
2026-05-05 18:32 28.62163 124.46949 35022 ft 527 kts 55°
2026-05-05 18:32 28.66492 124.53625 35029 ft 526 kts 55°
2026-05-05 18:33 28.70849 124.60354 35029 ft 528 kts 56°
2026-05-05 18:33 28.75510 124.66828 35017 ft 529 kts 44°
2026-05-05 18:34 28.81417 124.71713 35028 ft 524 kts 25°
2026-05-05 18:34 28.88158 124.74684 35022 ft 523 kts 15°
2026-05-05 18:35 28.95047 124.77399 35011 ft 524 kts 15°
2026-05-05 18:35 29.01911 124.80127 35016 ft 521 kts 15°
2026-05-05 18:36 29.08804 124.82876 35020 ft 524 kts 16°
2026-05-05 18:36 29.15651 124.85614 34999 ft 522 kts 15°
2026-05-05 18:37 29.22570 124.88384 35002 ft 523 kts 15°
2026-05-05 18:37 29.29412 124.91127 35025 ft 523 kts 15°
2026-05-05 18:38 29.36268 124.93882 35017 ft 521 kts 15°
2026-05-05 18:38 29.43130 124.96640 35019 ft 523 kts 15°
2026-05-05 18:39 29.50020 124.99413 35018 ft 527 kts 15°
2026-05-05 18:39 29.56947 125.02209 35022 ft 524 kts 15°
2026-05-05 18:40 29.63803 125.04977 35020 ft 525 kts 15°
2026-05-05 18:40 29.70673 125.07755 35017 ft 525 kts 14°
2026-05-05 18:41 29.77587 125.10557 35029 ft 524 kts 14°
2026-05-05 18:41 29.84463 125.13344 35026 ft 526 kts 14°
2026-05-05 18:42 29.91329 125.16135 35032 ft 524 kts 14°
2026-05-05 18:42 29.97102 125.18483 35042 ft 525 kts 14°
2026-05-05 18:43 30.05113 125.21751 35043 ft 523 kts 15°
2026-05-05 18:43 30.11978 125.24560 35037 ft 525 kts 14°
2026-05-05 18:44 30.17731 125.26918 35040 ft 524 kts 14°
2026-05-05 18:44 30.25718 125.30196 35036 ft 522 kts 14°
2026-05-05 18:45 30.31455 125.32553 35043 ft 523 kts 14°
2026-05-05 18:45 30.39400 125.35823 35041 ft 521 kts 14°
2026-05-05 18:46 30.46236 125.38640 35042 ft 519 kts 14°
2026-05-05 18:46 30.51936 125.40994 35061 ft 521 kts 14°
2026-05-05 18:47 30.59866 125.44270 35063 ft 518 kts 14°
2026-05-05 18:47 30.66656 125.47083 35072 ft 519 kts 14°
2026-05-05 18:48 30.73470 125.49908 35066 ft 520 kts 14°
2026-05-05 18:48 30.80274 125.52735 35071 ft 518 kts 13°
2026-05-05 18:49 30.87054 125.55554 35072 ft 518 kts 13°
2026-05-05 18:49 30.93870 125.58392 35077 ft 518 kts 13°
2026-05-05 18:50 31.00628 125.61212 35076 ft 518 kts 14°
2026-05-05 18:50 31.07473 125.64072 35083 ft 518 kts 14°
2026-05-05 18:51 31.14269 125.66916 35042 ft 518 kts 14°
2026-05-05 18:51 31.21017 125.69743 35061 ft 517 kts 14°
2026-05-05 18:52 31.27803 125.72591 35054 ft 515 kts 14°
2026-05-05 18:52 31.34561 125.75431 35056 ft 516 kts 14°
2026-05-05 18:53 31.41299 125.78269 35066 ft 514 kts 14°
2026-05-05 18:53 31.48022 125.81104 35064 ft 512 kts 14°
2026-05-05 18:54 31.54736 125.83939 35067 ft 514 kts 14°
2026-05-05 18:54 31.61459 125.86775 35068 ft 510 kts 14°
2026-05-05 18:55 31.68127 125.89578 35069 ft 510 kts 14°
2026-05-05 18:55 31.74823 125.92396 35069 ft 511 kts 14°
2026-05-05 18:56 31.81497 125.95210 35070 ft 510 kts 14°
2026-05-05 18:56 31.88193 125.98038 35072 ft 508 kts 14°
2026-05-05 18:57 31.94810 126.00838 35074 ft 508 kts 14°
2026-05-05 18:57 32.01494 126.03670 35078 ft 508 kts 14°
2026-05-05 18:58 32.08105 126.06474 35074 ft 505 kts 14°
2026-05-05 18:58 32.14755 126.09288 35069 ft 506 kts 14°
2026-05-05 18:59 32.21374 126.12096 35074 ft 505 kts 14°
2026-05-05 18:59 32.27963 126.14896 35071 ft 503 kts 14°
2026-05-05 19:00 32.34560 126.17703 35083 ft 502 kts 14°
2026-05-05 19:00 32.41078 126.20480 35087 ft 499 kts 14°
2026-05-05 19:01 32.47631 126.23279 35087 ft 498 kts 14°
2026-05-05 19:01 32.54152 126.26064 35090 ft 502 kts 14°
2026-05-05 19:02 32.59640 126.28417 35087 ft 499 kts 14°
2026-05-05 19:02 32.66140 126.31209 35084 ft 495 kts 14°
2026-05-05 19:03 32.73651 126.34439 35089 ft 493 kts 14°
2026-05-05 19:03 32.80088 126.37211 35090 ft 494 kts 14°
2026-05-05 19:04 32.86604 126.40022 35091 ft 495 kts 14°
2026-05-05 19:04 32.93075 126.42818 35090 ft 492 kts 15°
2026-05-05 19:05 32.99531 126.45613 35090 ft 490 kts 15°
2026-05-05 19:05 33.05935 126.48366 35087 ft 489 kts 14°
2026-05-05 19:06 33.12368 126.51132 35089 ft 491 kts 14°
2026-05-05 19:06 33.17686 126.53423 35087 ft 488 kts 14°
2026-05-05 19:07 33.24079 126.56180 35091 ft 488 kts 14°
2026-05-05 19:07 33.31519 126.59395 35091 ft 488 kts 15°
2026-05-05 19:08 33.37898 126.62156 35087 ft 485 kts 14°
2026-05-05 19:08 33.43210 126.64467 35099 ft 487 kts 15°
2026-05-05 19:09 33.50584 126.67683 35084 ft 486 kts 15°
2026-05-05 19:09 33.53814 126.69025 34855 ft 482 kts 10°
2026-05-05 19:09 33.57035 126.69826 35151 ft 473 kts
2026-05-05 19:10 33.63617 126.70615 35088 ft 473 kts 359°
2026-05-05 19:10 33.66878 126.70979 34858 ft 470 kts 359°
2026-05-05 19:10 33.69041 126.71218 35015 ft 463 kts 360°
2026-05-05 19:11 33.76591 126.72025 35088 ft 473 kts 360°
2026-05-05 19:11 33.82033 126.72604 35092 ft 473 kts 359°
2026-05-05 19:12 33.89694 126.73415 35085 ft 470 kts 359°
2026-05-05 19:12 33.96165 126.74091 35082 ft 468 kts 359°
2026-05-05 19:13 34.01597 126.74657 35091 ft 468 kts 359°
2026-05-05 19:13 34.08054 126.75334 35092 ft 467 kts 360°
2026-05-05 19:14 34.15593 126.76126 35083 ft 464 kts 360°
2026-05-05 19:14 34.22037 126.76803 35084 ft 464 kts 360°
2026-05-05 19:15 34.28475 126.77482 35093 ft 463 kts 360°
2026-05-05 19:15 34.34866 126.78161 35084 ft 463 kts
2026-05-05 19:16 34.40194 126.78728 35089 ft 462 kts
2026-05-05 19:16 34.46600 126.79410 35094 ft 462 kts
2026-05-05 19:17 34.54108 126.80211 35086 ft 460 kts
2026-05-05 19:17 34.60476 126.80892 35084 ft 459 kts
2026-05-05 19:18 34.65737 126.81455 35077 ft 458 kts
2026-05-05 19:18 34.72124 126.82140 35085 ft 459 kts
2026-05-05 19:19 34.78475 126.82821 35083 ft 456 kts
2026-05-05 19:19 34.85831 126.83612 35075 ft 454 kts
2026-05-05 19:20 34.92110 126.84288 35086 ft 456 kts
2026-05-05 19:20 34.98441 126.84971 35065 ft 455 kts
2026-05-05 19:21 35.03685 126.85537 35095 ft 455 kts
2026-05-05 19:21 35.11001 126.86329 35084 ft 452 kts
2026-05-05 19:22 35.16215 126.86895 35073 ft 451 kts
2026-05-05 19:22 35.23497 126.87685 35084 ft 450 kts
2026-05-05 19:23 35.29718 126.88361 35079 ft 448 kts
2026-05-05 19:23 35.35960 126.89040 35082 ft 448 kts
2026-05-05 19:24 35.41108 126.89602 35085 ft 448 kts
2026-05-05 19:24 35.48331 126.90391 35087 ft 446 kts
2026-05-05 19:25 35.54520 126.91068 35076 ft 444 kts
2026-05-05 19:25 35.60690 126.91743 35068 ft 445 kts
2026-05-05 19:26 35.66816 126.92413 35076 ft 443 kts
2026-05-05 19:26 35.71910 126.92973 35062 ft 440 kts
2026-05-05 19:27 35.78061 126.93649 35083 ft 443 kts
2026-05-05 19:27 35.85211 126.94436 35068 ft 441 kts
2026-05-05 19:28 35.90273 126.94994 35079 ft 438 kts
2026-05-05 19:28 35.96354 126.95666 35077 ft 439 kts
2026-05-05 19:29 36.02298 126.96323 35074 ft 439 kts
2026-05-05 19:29 36.08357 126.96995 35073 ft 437 kts
2026-05-05 19:30 36.14400 126.97665 35080 ft 438 kts
2026-05-05 19:30 36.20500 126.98344 35077 ft 438 kts
2026-05-05 19:31 36.26550 126.99018 35070 ft 436 kts
2026-05-05 19:31 36.32563 126.99688 35068 ft 436 kts
2026-05-05 19:32 36.38647 127.00303 35071 ft 435 kts 358°
2026-05-05 19:32 36.42614 127.00198 35059 ft 424 kts 356°
2026-05-05 19:32 36.45543 127.00105 35054 ft 416 kts 356°
2026-05-05 19:33 36.50333 126.99936 35067 ft 413 kts 356°
2026-05-05 19:33 36.57093 126.99691 34964 ft 422 kts 356°
2026-05-05 19:34 36.59066 126.99622 34776 ft 426 kts 356°
2026-05-05 19:34 36.62022 126.99515 34211 ft 432 kts 356°
2026-05-05 19:34 36.65031 126.99408 33618 ft 432 kts 357°
2026-05-05 19:35 36.71873 126.98111 32264 ft 425 kts 339°
2026-05-05 19:35 36.73649 126.97161 31893 ft 424 kts 332°
2026-05-05 19:35 36.76148 126.95222 31393 ft 419 kts 322°
2026-05-05 19:35 36.79033 126.92045 30741 ft 416 kts 317°
2026-05-05 19:36 36.80423 126.90407 30410 ft 416 kts 317°
2026-05-05 19:36 36.82500 126.87910 29910 ft 415 kts 316°
2026-05-05 19:36 36.84565 126.85383 29397 ft 412 kts 316°
2026-05-05 19:36 36.86572 126.82897 28913 ft 407 kts 316°
2026-05-05 19:37 36.88573 126.80402 28444 ft 404 kts 316°
2026-05-05 19:37 36.90538 126.77938 27985 ft 402 kts 316°
2026-05-05 19:37 36.92516 126.75452 27510 ft 401 kts 316°
2026-05-05 19:37 36.94468 126.72990 27012 ft 398 kts 315°
2026-05-05 19:38 36.96408 126.70541 26531 ft 394 kts 315°
2026-05-05 19:38 36.98316 126.68129 26067 ft 390 kts 315°
2026-05-05 19:38 37.00157 126.65699 25621 ft 390 kts 310°
2026-05-05 19:38 37.01673 126.62897 25191 ft 390 kts 299°
2026-05-05 19:39 37.02727 126.59782 24698 ft 391 kts 289°
2026-05-05 19:39 37.03635 126.56580 24129 ft 388 kts 295°
2026-05-05 19:39 37.04842 126.53614 23568 ft 385 kts 304°
2026-05-05 19:39 37.06443 126.50970 23097 ft 380 kts 313°
2026-05-05 19:40 37.08272 126.48621 22669 ft 375 kts 318°
2026-05-05 19:40 37.10214 126.46454 22227 ft 372 kts 320°
2026-05-05 19:40 37.12190 126.44420 21792 ft 370 kts 322°
2026-05-05 19:40 37.14884 126.41788 21206 ft 369 kts 323°
2026-05-05 19:41 37.16943 126.39840 20763 ft 366 kts 323°
2026-05-05 19:41 37.18286 126.38586 20472 ft 366 kts 323°
2026-05-05 19:41 37.20264 126.36582 20039 ft 363 kts 314°
2026-05-05 19:41 37.21768 126.34041 19627 ft 363 kts 297°
2026-05-05 19:42 37.22636 126.31107 19162 ft 361 kts 281°
2026-05-05 19:42 37.22946 126.27991 18694 ft 360 kts 275°
2026-05-05 19:42 37.23170 126.24879 18236 ft 358 kts 275°
2026-05-05 19:42 37.23856 126.20901 17882 ft 354 kts 293°
2026-05-05 19:43 37.24635 126.19071 17595 ft 359 kts 304°
2026-05-05 19:43 37.26261 126.16737 16918 ft 364 kts 319°
2026-05-05 19:43 37.28267 126.14803 16316 ft 363 kts 323°
2026-05-05 19:43 37.30885 126.12356 16261 ft 341 kts 324°
2026-05-05 19:44 37.32143 126.11204 16253 ft 331 kts 324°
2026-05-05 19:44 37.33981 126.09534 16252 ft 316 kts 324°
2026-05-05 19:44 37.36283 126.07455 16224 ft 298 kts 324°
2026-05-05 19:44 37.37387 126.06461 16158 ft 288 kts 324°
2026-05-05 19:45 37.39537 126.04527 15346 ft 292 kts 324°
2026-05-05 19:45 37.40646 126.03530 15067 ft 290 kts 324°
2026-05-05 19:45 37.42382 126.02132 14416 ft 305 kts 336°
2026-05-05 19:45 37.44398 126.01402 13725 ft 309 kts 355°
2026-05-05 19:46 37.46510 126.01565 13233 ft 301 kts 15°
2026-05-05 19:46 37.48396 126.02634 12870 ft 297 kts 37°
2026-05-05 19:46 37.50093 126.05300 12126 ft 297 kts 69°
2026-05-05 19:46 37.50411 126.06963 11770 ft 296 kts 86°
2026-05-05 19:47 37.50127 126.09487 11261 ft 295 kts 114°
2026-05-05 19:47 37.48965 126.11546 11116 ft 290 kts 141°
2026-05-05 19:47 37.47312 126.13023 11058 ft 291 kts 146°
2026-05-05 19:47 37.45097 126.14970 11021 ft 294 kts 145°
2026-05-05 19:48 37.43964 126.15977 10743 ft 301 kts 145°
2026-05-05 19:48 37.41735 126.17963 10560 ft 293 kts 145°
2026-05-05 19:48 37.40081 126.19438 10279 ft 289 kts 144°
2026-05-05 19:48 37.38986 126.20416 9970 ft 294 kts 144°
2026-05-05 19:49 37.37509 126.22174 9374 ft 294 kts 122°
2026-05-05 19:49 37.36770 126.24516 8821 ft 292 kts 96°
2026-05-05 19:49 37.36919 126.27018 8210 ft 290 kts 69°
2026-05-05 19:49 37.37854 126.29219 7653 ft 287 kts 53°
2026-05-05 19:50 37.39179 126.31037 7038 ft 283 kts 30°
2026-05-05 19:50 37.40966 126.31921 6498 ft 274 kts
2026-05-05 19:50 37.42809 126.31641 6127 ft 262 kts 334°
2026-05-05 19:50 37.44402 126.30570 5671 ft 260 kts 325°
2026-05-05 19:51 37.45945 126.29373 5242 ft 260 kts 324°
2026-05-05 19:51 37.47438 126.28149 4828 ft 259 kts 322°
2026-05-05 19:51 37.48936 126.26876 4402 ft 259 kts 321°
2026-05-05 19:51 37.50418 126.25589 3977 ft 259 kts 321°
2026-05-05 19:52 37.51913 126.24275 3600 ft 259 kts 320°
2026-05-05 19:52 37.53871 126.22543 3234 ft 259 kts 322°
2026-05-05 19:52 37.55531 126.21704 2970 ft 266 kts 351°
2026-05-05 19:52 37.57383 126.22012 2990 ft 271 kts 22°
2026-05-05 19:53 37.58464 126.22840 2991 ft 274 kts 42°
2026-05-05 19:53 37.59666 126.24678 2984 ft 276 kts 56°
2026-05-05 19:53 37.60767 126.26619 2950 ft 266 kts 57°
2026-05-05 19:53 37.61458 126.28680 2968 ft 247 kts 86°
2026-05-05 19:54 37.61243 126.30711 2969 ft 225 kts 121°
2026-05-05 19:54 37.60394 126.32250 2967 ft 209 kts 134°
2026-05-05 19:54 37.59439 126.33605 2812 ft 204 kts 140°
2026-05-05 19:54 37.58402 126.34821 2539 ft 204 kts 143°
2026-05-05 19:55 37.57316 126.35952 2254 ft 199 kts 146°
2026-05-05 19:55 37.56248 126.36990 1967 ft 187 kts 147°
2026-05-05 19:55 37.55240 126.37928 1743 ft 173 kts 148°
2026-05-05 19:55 37.54316 126.38769 1505 ft 156 kts 148°
2026-05-05 19:56 37.53205 126.39764 1189 ft 139 kts 148°
2026-05-05 19:56 37.52412 126.40450 969 ft 136 kts 149°
2026-05-05 19:56 37.51631 126.41134 804 ft 137 kts 148°
2026-05-05 19:56 37.50838 126.41813 654 ft 140 kts 147°
2026-05-05 19:57 37.50307 126.42288 536 ft 140 kts 143°
2026-05-05 19:57 37.49518 126.43018 309 ft 139 kts 146°
2026-05-05 19:57 37.48726 126.43721 127 ft 138 kts 144°
2026-05-05 19:57 37.47699 126.44616 32 ft 124 kts 142°
2026-05-05 19:58 37.47151 126.45121 31 ft 66 kts 144°
2026-05-05 19:58 37.46830 126.45406 31 ft 42 kts 144°
2026-05-05 19:58 37.46611 126.45602 31 ft 37 kts 144°
2026-05-05 19:58 37.46458 126.45748 31 ft 12 kts 133°
2026-05-05 19:59 37.46418 126.45803 31 ft 12 kts 129°
2026-05-05 19:59 37.46365 126.45905 31 ft 17 kts 122°
2026-05-05 19:59 37.46326 126.46114 31 ft 16 kts 46°
2026-05-05 19:59 37.46379 126.46098 31 ft 9 kts 309°
2026-05-05 20:00 37.46407 126.46089 31 ft 6 kts 25°
2026-05-05 20:00 37.46451 126.46183 31 ft 14 kts 68°
2026-05-05 20:00 37.46508 126.46211 31 ft 8 kts 331°
2026-05-05 20:00 37.46546 126.46184 31 ft 3 kts 323°
2026-05-05 20:01 37.46547 126.46184 31 ft 0 kts 323°